• In Norway
  • List of Countries
  • For 7 days
  • Water Temperature
  • Satellite Maps
  • Weather Map
  • Weather Widgets
  • user-avatar
    Login

    Hourly Weather Konstantyna

    Today, 20 September, Thursday

    Time Temperature Precipitation Wind Pressure Humidity
    00:00 +23°C° 0 mm 1 mps 713 mmHg 75%
    01:00 +23°C° 0.4 mm 1 mps 712 mmHg 76%
    02:00 +23°C° 0.4 mm 1 mps 712 mmHg 76%
    03:00 +23°C° 0.4 mm 1 mps 712 mmHg 77%
    04:00 +22°C° 0.3 mm 1 mps 712 mmHg 77%
    05:00 +22°C° 0.3 mm 1 mps 712 mmHg 78%
    06:00 +22°C° 0.3 mm 1 mps 712 mmHg 78%
    07:00 +23°C° 0 mm 1 mps 712 mmHg 72%
    08:00 +24°C° 0 mm 2 mps 712 mmHg 65%
    09:00 +26°C° 0 mm 2 mps 712 mmHg 59%
    10:00 +26°C° 0.4 mm 3 mps 712 mmHg 56%
    11:00 +27°C° 0.4 mm 3 mps 712 mmHg 53%
    12:00 +28°C° 0.4 mm 3 mps 712 mmHg 51%
    13:00 +28°C° 0.4 mm 4 mps 712 mmHg 51%
    14:00 +28°C° 0.4 mm 4 mps 712 mmHg 52%
    15:00 +27°C° 0.4 mm 4 mps 711 mmHg 53%
    16:00 +26°C° 0 mm 4 mps 711 mmHg 58%
    17:00 +25°C° 0 mm 3 mps 711 mmHg 62%
    18:00 +25°C° 0 mm 3 mps 711 mmHg 67%
    19:00 +24°C° 0 mm 3 mps 711 mmHg 71%
    20:00 +23°C° 0 mm 2 mps 711 mmHg 74%
    21:00 +23°C° 0 mm 2 mps 711 mmHg 78%
    22:00 +21°C° 0.1 mm 2 mps 711 mmHg 79%
    23:00 +22°C° 0.1 mm 1 mps 711 mmHg 81%

    Tomorrow, 21 September, Friday

    Time Temperature Precipitation Wind Pressure Humidity
    00:00 +22°C° 0.1 mm 1 mps 711 mmHg 82%
    01:00 +21°C° 0 mm 1 mps 711 mmHg 83%
    02:00 +21°C° 0 mm 1 mps 711 mmHg 83%
    03:00 +21°C° 0 mm 1 mps 710 mmHg 84%
    04:00 +21°C° 0 mm 1 mps 710 mmHg 84%
    05:00 +21°C° 0 mm 1 mps 711 mmHg 84%
    06:00 +21°C° 0 mm 1 mps 711 mmHg 84%
    07:00 +22°C° 0 mm 1 mps 711 mmHg 77%
    08:00 +23°C° 0 mm 2 mps 712 mmHg 69%
    09:00 +24°C° 0 mm 2 mps 712 mmHg 61%
    10:00 +25°C° 0 mm 2 mps 712 mmHg 56%
    11:00 +26°C° 0 mm 3 mps 712 mmHg 50%
    12:00 +28°C° 0 mm 3 mps 712 mmHg 45%
    13:00 +28°C° 0 mm 4 mps 712 mmHg 45%
    14:00 +28°C° 0 mm 4 mps 712 mmHg 46%
    15:00 +28°C° 0 mm 5 mps 712 mmHg 47%
    16:00 +26°C° 0.1 mm 4 mps 712 mmHg 53%
    17:00 +25°C° 0.1 mm 4 mps 712 mmHg 59%
    18:00 +23°C° 0.1 mm 4 mps 712 mmHg 66%
    19:00 +24°C° 0 mm 3 mps 712 mmHg 69%
    20:00 +23°C° 0 mm 2 mps 713 mmHg 72%
    21:00 +21°C° 0 mm 2 mps 713 mmHg 75%
    22:00 +21°C° 0 mm 2 mps 713 mmHg 76%
    23:00 +22°C° 0 mm 1 mps 713 mmHg 77%

    Day after tomorrow, 22 September, Saturday

    Time Temperature Precipitation Wind Pressure Humidity
    00:00 +22°C° 0 mm 1 mps 713 mmHg 78%
    01:00 +22°C° 0 mm 1 mps 713 mmHg 78%
    02:00 +21°C° 0 mm 1 mps 713 mmHg 79%
    03:00 +21°C° 0 mm 1 mps 713 mmHg 80%
    04:00 +21°C° 0 mm 1 mps 713 mmHg 80%
    05:00 +21°C° 0 mm 1 mps 713 mmHg 80%
    06:00 +21°C° 0 mm 1 mps 714 mmHg 81%
    07:00 +22°C° 0 mm 1 mps 714 mmHg 75%
    08:00 +23°C° 0 mm 2 mps 715 mmHg 69%
    09:00 +24°C° 0 mm 2 mps 715 mmHg 63%
    10:00 +26°C° 0 mm 2 mps 715 mmHg 57%
    11:00 +27°C° 0 mm 3 mps 715 mmHg 51%
    12:00 +28°C° 0 mm 3 mps 715 mmHg 45%
    13:00 +28°C° 0 mm 3 mps 715 mmHg 44%
    14:00 +28°C° 0 mm 4 mps 715 mmHg 43%
    15:00 +29°C° 0 mm 4 mps 715 mmHg 42%
    16:00 +27°C° 0 mm 4 mps 715 mmHg 49%
    17:00 +26°C° 0 mm 3 mps 715 mmHg 56%
    18:00 +25°C° 0 mm 3 mps 715 mmHg 63%
    19:00 +24°C° 0 mm 2 mps 715 mmHg 66%
    20:00 +24°C° 0 mm 2 mps 716 mmHg 70%
    21:00 +23°C° 0 mm 1 mps 716 mmHg 74%
    22:00 +23°C° 0 mm 1 mps 716 mmHg 75%
    23:00 +23°C° 0 mm 1 mps 716 mmHg 77%

    23 September, Sunday

    Time Temperature Precipitation Wind Pressure Humidity
    00:00 +20°C° 0 mm 0 mps 716 mmHg 78%
    01:00 +20°C° 0 mm 0 mps 715 mmHg 77%
    02:00 +20°C° 0 mm 0 mps 715 mmHg 77%
    03:00 +19°C° 0 mm 0 mps 715 mmHg 76%
    04:00 +19°C° 0 mm 0 mps 715 mmHg 74%
    05:00 +22°C° 0 mm 1 mps 715 mmHg 72%
    06:00 +22°C° 0 mm 1 mps 715 mmHg 70%
    07:00 +23°C° 0 mm 1 mps 715 mmHg 62%
    08:00 +23°C° 0 mm 0 mps 716 mmHg 54%
    09:00 +24°C° 0 mm 0 mps 716 mmHg 45%
    10:00 +27°C° 0 mm 1 mps 716 mmHg 42%
    11:00 +28°C° 0 mm 1 mps 716 mmHg 39%
    12:00 +29°C° 0 mm 1 mps 716 mmHg 35%
    13:00 +30°C° 0 mm 2 mps 716 mmHg 35%
    14:00 +30°C° 0 mm 2 mps 715 mmHg 35%
    15:00 +30°C° 0 mm 2 mps 715 mmHg 35%
    16:00 +29°C° 0 mm 2 mps 715 mmHg 40%
    17:00 +28°C° 0 mm 2 mps 715 mmHg 45%
    18:00 +27°C° 0 mm 2 mps 715 mmHg 49%
    19:00 +26°C° 0 mm 2 mps 715 mmHg 53%
    20:00 +26°C° 0 mm 1 mps 715 mmHg 57%
    21:00 +25°C° 0 mm 1 mps 715 mmHg 61%
    22:00 +25°C° 0 mm 1 mps 715 mmHg 63%
    23:00 +24°C° 0 mm 1 mps 715 mmHg 64%

    24 September, Monday

    Time Temperature Precipitation Wind Pressure Humidity
    00:00 +22°C° 0 mm 0 mps 714 mmHg 65%
    01:00 +22°C° 0 mm 0 mps 714 mmHg 66%
    02:00 +21°C° 0 mm 0 mps 714 mmHg 66%
    03:00 +21°C° 0 mm 0 mps 713 mmHg 66%
    04:00 +21°C° 0 mm 0 mps 713 mmHg 65%
    05:00 +21°C° 0 mm 0 mps 713 mmHg 64%
    06:00 +21°C° 0 mm 0 mps 714 mmHg 64%
    07:00 +25°C° 0 mm 1 mps 714 mmHg 57%
    08:00 +26°C° 0 mm 1 mps 714 mmHg 49%
    09:00 +28°C° 0 mm 1 mps 715 mmHg 42%
    10:00 +29°C° 0 mm 1 mps 715 mmHg 39%
    11:00 +30°C° 0 mm 2 mps 714 mmHg 35%
    12:00 +31°C° 0 mm 2 mps 714 mmHg 31%
    13:00 +31°C° 0 mm 2 mps 714 mmHg 32%
    14:00 +31°C° 0 mm 3 mps 714 mmHg 32%
    15:00 +31°C° 0 mm 3 mps 713 mmHg 33%
    16:00 +29°C° 0 mm 3 mps 713 mmHg 38%
    17:00 +28°C° 0 mm 3 mps 713 mmHg 44%
    18:00 +27°C° 0 mm 3 mps 713 mmHg 49%
    19:00 +26°C° 0 mm 2 mps 713 mmHg 53%
    20:00 +25°C° 0 mm 2 mps 714 mmHg 57%
    21:00 +24°C° 0 mm 1 mps 714 mmHg 61%
    22:00 +24°C° 0 mm 1 mps 714 mmHg 64%
    23:00 +23°C° 0 mm 1 mps 714 mmHg 66%

    25 September, Tuesday

    Time Temperature Precipitation Wind Pressure Humidity
    00:00 +23°C° 0 mm 1 mps 713 mmHg 69%
    01:00 +22°C° 0 mm 1 mps 713 mmHg 71%
    02:00 +22°C° 0 mm 1 mps 713 mmHg 74%
    03:00 +22°C° 0 mm 1 mps 713 mmHg 77%
    04:00 +21°C° 0 mm 1 mps 713 mmHg 78%
    05:00 +21°C° 0 mm 1 mps 713 mmHg 80%
    06:00 +21°C° 0 mm 1 mps 714 mmHg 82%
    07:00 +22°C° 0 mm 1 mps 714 mmHg 75%
    08:00 +24°C° 0 mm 1 mps 714 mmHg 67%
    09:00 +25°C° 0 mm 2 mps 715 mmHg 60%
    10:00 +26°C° 0 mm 2 mps 715 mmHg 55%
    11:00 +27°C° 0 mm 3 mps 715 mmHg 51%
    12:00 +28°C° 0 mm 3 mps 715 mmHg 46%
    13:00 +28°C° 0 mm 4 mps 714 mmHg 47%
    14:00 +28°C° 0 mm 4 mps 714 mmHg 47%
    15:00 +28°C° 0 mm 4 mps 714 mmHg 48%
    16:00 +27°C° 0 mm 4 mps 714 mmHg 52%
    17:00 +25°C° 0 mm 4 mps 714 mmHg 57%
    18:00 +24°C° 0 mm 3 mps 714 mmHg 61%
    19:00 +22°C° 0 mm 3 mps 714 mmHg 64%
    20:00 +23°C° 0 mm 2 mps 714 mmHg 67%
    21:00 +21°C° 0 mm 2 mps 714 mmHg 70%
    22:00 +21°C° 0 mm 2 mps 714 mmHg 72%
    23:00 +21°C° 0 mm 1 mps 714 mmHg 73%
    Show more